Tracking 31027 objects as of 19-Jul-2025
HD Live streaming from Space Station
objects crossing your sky now

DELTA 1 DEB

Track DELTA 1 DEB now!
10-day predictions


NORAD ID: 21545
Int'l Code: 1975-052GZ
Perigee: 1,009.2 km
Apogee: 1,358.0 km
Inclination: 99.6 °
Period: 108.9 minutes
Semi major axis: 7554 km
RCS: 0.0066 m2 (small)
Launch date: June 12, 1975
Source: United States (US)
Launch site: AIR FORCE WESTERN TEST RANGE (AFWTR)

Note: This is SATELLITE DEBRIS
Your satellite tracking list
FREGAT DEB
Track 1 satellite(s)




NASA's NSSDC Master Catalog

Two Line Element Set (TLE):
1 21545U 75052GZ  25199.40720198  .00000118  00000-0  32808-3 0  9997
2 21545  99.6455 359.2715 0230827 146.1178 273.8613 13.22164463648773
Source of the keplerian elements: AFSPC